Location: Unspecified
(43.8044°N, 11.0278°E)
Time: 22:21:39
(UTC+02:00)

CZ-3 Stage 3 - Visible Passes

Search period start: 18 August 2017 00:00
Search period end: 28 August 2017 00:00
Orbit: 429 x 34770 km, 31.0° (Epoch: 17 August)

Date Brightness Start Highest point End Pass type
(mag) Time Alt. Az. Time Alt. Az. Time Alt. Az.
18 Aug 8.1 15:54:33 10° W 16:41:23 51° SW 22:26:42 10° SW visible
19 Aug 6.4 12:15:33 10° WSW 12:28:43 61° S 20:34:07 10° S visible
20 Aug 11.2 19:54:54 10° W 20:32:25 14° W 21:33:30 10° WSW visible
21 Aug 8.1 15:45:27 10° W 16:31:39 50° SW 22:11:52 10° SW visible
22 Aug 6.3 12:06:26 10° WSW 12:19:28 60° S 20:21:53 10° S visible
23 Aug 11.3 19:48:17 10° W 20:22:34 13° W 21:15:50 10° WSW visible
24 Aug 8.0 15:36:22 10° W 16:21:56 49° SW 21:57:00 10° SW visible
25 Aug 6.3 11:57:19 10° WSW 12:10:13 60° S 20:09:30 10° S visible
26 Aug 11.3 19:42:20 10° W 20:12:45 12° W 20:57:28 10° WSW visible
27 Aug 8.0 15:27:18 10° W 16:12:15 48° SW 21:42:06 10° SW visible
